When you browse on this site, cookies collect data to enhance your experience and personalize the content and advertising you see.
Visit our Privacy Policy to learn more. By continuing to use the site, you agree to this use of cookies and data.
  • In Schweiz
  • Länderverzeichnis
  • Für 7 Tage
  • Wassertemperatur
  • Satellitenkarten
  • Wetterkarte
  • Widgets
  • user-avatar
    Anmelden

    Stündliche Wetter Baraki Barak

    Heute, 20 Juni, Donnerstag

    Zeit Temperatur Niederschläge Wind Luftdruck Luftfeuchtigkeit
    00:00 +23°C° 0 mm 1 m/S 597 mmHg 28%
    01:00 +22°C° 0 mm 1 m/S 597 mmHg 31%
    02:00 +21°C° 0 mm 1 m/S 597 mmHg 34%
    03:00 +21°C° 0 mm 1 m/S 596 mmHg 34%
    04:00 +20°C° 0 mm 1 m/S 596 mmHg 34%
    05:00 +17°C° 0 mm 0 m/S 596 mmHg 35%
    06:00 +21°C° 0 mm 1 m/S 597 mmHg 31%
    07:00 +22°C° 0 mm 1 m/S 597 mmHg 27%
    08:00 +23°C° 0 mm 1 m/S 598 mmHg 23%
    09:00 +24°C° 0 mm 1 m/S 598 mmHg 22%
    10:00 +26°C° 0 mm 2 m/S 599 mmHg 20%
    11:00 +27°C° 0 mm 2 m/S 599 mmHg 19%
    12:00 +28°C° 0 mm 2 m/S 599 mmHg 17%
    13:00 +29°C° 0 mm 2 m/S 599 mmHg 15%
    14:00 +30°C° 0 mm 2 m/S 599 mmHg 13%
    15:00 +29°C° 0 mm 2 m/S 599 mmHg 15%
    16:00 +29°C° 0 mm 3 m/S 598 mmHg 17%
    17:00 +28°C° 0 mm 4 m/S 598 mmHg 20%
    18:00 +27°C° 0 mm 4 m/S 598 mmHg 22%
    19:00 +26°C° 0 mm 4 m/S 598 mmHg 25%
    20:00 +25°C° 0 mm 4 m/S 598 mmHg 28%
    21:00 +24°C° 0 mm 3 m/S 598 mmHg 30%
    22:00 +24°C° 0 mm 2 m/S 598 mmHg 32%
    23:00 +23°C° 0 mm 1 m/S 598 mmHg 34%

    Morgen, 21 Juni, Freitag

    Zeit Temperatur Niederschläge Wind Luftdruck Luftfeuchtigkeit
    00:00 +23°C° 0 mm 1 m/S 598 mmHg 35%
    01:00 +22°C° 0 mm 1 m/S 598 mmHg 36%
    02:00 +21°C° 0 mm 1 m/S 597 mmHg 38%
    03:00 +21°C° 0 mm 1 m/S 597 mmHg 38%
    04:00 +20°C° 0 mm 1 m/S 597 mmHg 39%
    05:00 +20°C° 0 mm 1 m/S 597 mmHg 39%
    06:00 +21°C° 0 mm 1 m/S 597 mmHg 36%
    07:00 +22°C° 0 mm 1 m/S 598 mmHg 33%
    08:00 +23°C° 0 mm 1 m/S 599 mmHg 29%
    09:00 +24°C° 0 mm 1 m/S 599 mmHg 28%
    10:00 +26°C° 0 mm 1 m/S 599 mmHg 26%
    11:00 +27°C° 0 mm 1 m/S 600 mmHg 24%
    12:00 +28°C° 0 mm 1 m/S 600 mmHg 22%
    13:00 +29°C° 0 mm 2 m/S 600 mmHg 19%
    14:00 +30°C° 0 mm 2 m/S 600 mmHg 17%
    15:00 +30°C° 0 mm 3 m/S 600 mmHg 19%
    16:00 +29°C° 0 mm 4 m/S 599 mmHg 21%
    17:00 +29°C° 0 mm 4 m/S 599 mmHg 23%
    18:00 +28°C° 0 mm 4 m/S 599 mmHg 27%
    19:00 +27°C° 0 mm 4 m/S 599 mmHg 32%
    20:00 +25°C° 0 mm 4 m/S 599 mmHg 37%
    21:00 +25°C° 0 mm 3 m/S 599 mmHg 38%
    22:00 +24°C° 0 mm 2 m/S 599 mmHg 39%
    23:00 +24°C° 0 mm 1 m/S 599 mmHg 40%

    übermorgen, 22 Juni, Samstag

    Zeit Temperatur Niederschläge Wind Luftdruck Luftfeuchtigkeit
    00:00 +23°C° 0 mm 1 m/S 599 mmHg 42%
    01:00 +23°C° 0 mm 1 m/S 598 mmHg 43%
    02:00 +20°C° 0 mm 0 m/S 598 mmHg 45%
    03:00 +20°C° 0 mm 0 m/S 598 mmHg 47%
    04:00 +19°C° 0 mm 0 m/S 597 mmHg 48%
    05:00 +18°C° 0 mm 0 m/S 597 mmHg 50%
    06:00 +22°C° 0 mm 1 m/S 598 mmHg 46%
    07:00 +23°C° 0 mm 1 m/S 598 mmHg 41%
    08:00 +24°C° 0 mm 1 m/S 599 mmHg 37%
    09:00 +25°C° 0 mm 1 m/S 599 mmHg 34%
    10:00 +26°C° 0 mm 1 m/S 600 mmHg 31%
    11:00 +28°C° 0 mm 1 m/S 600 mmHg 28%
    12:00 +29°C° 0 mm 1 m/S 600 mmHg 25%
    13:00 +30°C° 0 mm 1 m/S 600 mmHg 22%
    14:00 +31°C° 0 mm 1 m/S 600 mmHg 19%
    15:00 +30°C° 0 mm 1 m/S 600 mmHg 21%
    16:00 +29°C° 0 mm 1 m/S 599 mmHg 23%
    17:00 +29°C° 0 mm 2 m/S 599 mmHg 26%
    18:00 +28°C° 0 mm 2 m/S 599 mmHg 29%
    19:00 +27°C° 0 mm 1 m/S 599 mmHg 33%
    20:00 +25°C° 0 mm 1 m/S 598 mmHg 36%
    21:00 +25°C° 0 mm 1 m/S 599 mmHg 37%
    22:00 +25°C° 0 mm 1 m/S 599 mmHg 38%
    23:00 +22°C° 0 mm 0 m/S 599 mmHg 39%

    23 Juni, Sonntag

    Zeit Temperatur Niederschläge Wind Luftdruck Luftfeuchtigkeit
    00:00 +22°C° 0 mm 0 m/S 599 mmHg 39%
    01:00 +23°C° 0 mm 1 m/S 598 mmHg 39%
    02:00 +22°C° 0 mm 1 m/S 598 mmHg 39%
    03:00 +22°C° 0 mm 1 m/S 597 mmHg 37%
    04:00 +21°C° 0 mm 1 m/S 597 mmHg 35%
    05:00 +20°C° 0 mm 1 m/S 597 mmHg 33%
    06:00 +22°C° 0 mm 1 m/S 598 mmHg 30%
    07:00 +23°C° 0 mm 1 m/S 598 mmHg 26%
    08:00 +24°C° 0 mm 1 m/S 599 mmHg 22%
    09:00 +25°C° 0 mm 2 m/S 599 mmHg 21%
    10:00 +26°C° 0 mm 2 m/S 600 mmHg 20%
    11:00 +28°C° 0 mm 2 m/S 600 mmHg 19%
    12:00 +29°C° 0 mm 2 m/S 600 mmHg 19%
    13:00 +30°C° 0 mm 2 m/S 600 mmHg 18%
    14:00 +31°C° 0 mm 3 m/S 600 mmHg 17%
    15:00 +30°C° 0 mm 3 m/S 599 mmHg 18%
    16:00 +30°C° 0 mm 3 m/S 599 mmHg 20%
    17:00 +29°C° 0 mm 3 m/S 599 mmHg 21%
    18:00 +28°C° 0 mm 4 m/S 599 mmHg 21%
    19:00 +27°C° 0 mm 5 m/S 599 mmHg 22%
    20:00 +27°C° 0 mm 6 m/S 599 mmHg 22%
    21:00 +26°C° 0 mm 4 m/S 599 mmHg 24%
    22:00 +25°C° 0 mm 3 m/S 599 mmHg 26%
    23:00 +24°C° 0 mm 1 m/S 599 mmHg 28%

    24 Juni, Montag

    Zeit Temperatur Niederschläge Wind Luftdruck Luftfeuchtigkeit
    00:00 +24°C° 0 mm 1 m/S 599 mmHg 29%
    01:00 +23°C° 0 mm 1 m/S 598 mmHg 30%
    02:00 +23°C° 0 mm 1 m/S 598 mmHg 31%
    03:00 +22°C° 0 mm 1 m/S 597 mmHg 32%
    04:00 +21°C° 0 mm 1 m/S 597 mmHg 34%
    05:00 +20°C° 0 mm 1 m/S 597 mmHg 35%
    06:00 +21°C° 0 mm 1 m/S 597 mmHg 32%
    07:00 +22°C° 0 mm 1 m/S 598 mmHg 30%
    08:00 +23°C° 0 mm 1 m/S 598 mmHg 27%
    09:00 +25°C° 0 mm 1 m/S 599 mmHg 25%
    10:00 +26°C° 0 mm 2 m/S 599 mmHg 23%
    11:00 +27°C° 0 mm 2 m/S 599 mmHg 22%
    12:00 +29°C° 0 mm 2 m/S 599 mmHg 20%
    13:00 +30°C° 0 mm 1 m/S 599 mmHg 19%
    14:00 +31°C° 0 mm 1 m/S 600 mmHg 17%
    15:00 +30°C° 0 mm 3 m/S 599 mmHg 21%
    16:00 +29°C° 0 mm 4 m/S 599 mmHg 24%
    17:00 +29°C° 0 mm 6 m/S 599 mmHg 27%
    18:00 +27°C° 0.2 mm 5 m/S 598 mmHg 32%
    19:00 +25°C° 0.2 mm 4 m/S 598 mmHg 37%
    20:00 +23°C° 0.2 mm 2 m/S 597 mmHg 42%
    21:00 +23°C° 0.2 mm 2 m/S 598 mmHg 44%
    22:00 +23°C° 0.2 mm 2 m/S 598 mmHg 46%
    23:00 +22°C° 0.2 mm 3 m/S 598 mmHg 48%

    25 Juni, Dienstag

    Zeit Temperatur Niederschläge Wind Luftdruck Luftfeuchtigkeit
    00:00 +21°C° 0 mm 2 m/S 598 mmHg 48%
    01:00 +22°C° 0 mm 1 m/S 598 mmHg 49%
    02:00 +20°C° 0 mm 0 m/S 598 mmHg 49%
    03:00 +20°C° 0 mm 0 m/S 597 mmHg 51%
    04:00 +19°C° 0 mm 0 m/S 597 mmHg 52%
    05:00 +18°C° 0 mm 0 m/S 597 mmHg 54%
    06:00 +20°C° 0 mm 0 m/S 597 mmHg 49%
    07:00 +21°C° 0 mm 0 m/S 598 mmHg 44%
    08:00 +22°C° 0 mm 0 m/S 598 mmHg 40%
    09:00 +25°C° 0 mm 1 m/S 599 mmHg 36%
    10:00 +26°C° 0 mm 1 m/S 599 mmHg 32%
    11:00 +28°C° 0 mm 1 m/S 599 mmHg 28%
    12:00 +28°C° 0 mm 2 m/S 599 mmHg 27%
    13:00 +29°C° 0 mm 3 m/S 599 mmHg 25%
    14:00 +29°C° 0 mm 5 m/S 599 mmHg 24%
    15:00 +28°C° 0.1 mm 4 m/S 598 mmHg 26%
    16:00 +28°C° 0.1 mm 4 m/S 598 mmHg 28%
    17:00 +27°C° 0.1 mm 4 m/S 598 mmHg 30%
    18:00 +26°C° 0 mm 4 m/S 598 mmHg 31%
    19:00 +25°C° 0 mm 4 m/S 598 mmHg 33%
    20:00 +25°C° 0 mm 5 m/S 598 mmHg 34%
    21:00 +24°C° 0 mm 3 m/S 598 mmHg 34%
    22:00 +24°C° 0 mm 2 m/S 598 mmHg 34%
    23:00 +24°C° 0 mm 1 m/S 598 mmHg 34%
    Mehr zeigen